Regional Weather Roundup
Issued by NWS Cleveland, OH

Home | Current Version | Previous Version | Text Only | Print | Product List | Glossary On
Versions: 1 2 3 4 5 6 7 8 9 10 11 12 13 14 15 16 17 18 19 20 21 22 23 24 25 26 27 28 29 30 31 32 33 34 35 36 37 38 39 40 41 42 43 44 45 46 47 48 49 50
000
ASUS41 KCLE 281702
RWRCLE
OHIO REGIONAL WEATHER ROUNDUP
NATIONAL WEATHER SERVICE CLEVELAND, OH
1200 PM EST WED JAN 28 2015

NOTE: "FAIR" INDICATES FEW OR NO CLOUDS BELOW 12,000 FEET WITH NO
SIGNIFICANT WEATHER AND/OR OBSTRUCTIONS TO VISIBILITY.

OHZ001>008-015>018-024>027-034-035-043-044-281800-
   NORTHWEST OHIO

CITY           SKY/WX    TMP DP  RH WIND       PRES   REMARKS
DEFIANCE       SUNNY     22  10  60 S7        30.35F WCI  13
FINDLAY        SUNNY     18  12  77 S6        30.35F WCI  10
TOLEDO EXPRESS SUNNY     24  13  62 SE8       30.35F WCI  15
TOLEDO EXEC    SUNNY     23  14  68 S6        30.37F WCI  16
LIMA           SUNNY     19  12  74 S6        30.34F HAZE    WCI  11
$$

OHZ009>014-019>023-028>033-038-089-281800-
   NORTHEAST OHIO

CITY           SKY/WX    TMP DP  RH WIND       PRES   REMARKS
CLE-HOPKINS    MOSUNNY   21  14  74 SW6       30.38F WCI  13
CLE-LAKEFRONT  SUNNY     20  14  77 W7        30.36F WCI  11
CUY CO. ARPT   MOSUNNY   27  16  63 VRB3      30.35F
LORAIN-ELYRIA  SUNNY     18  14  84 SW3       30.36S
ASHTABULA      SUNNY     20   7  57 NW6       30.33F WCI  12
AKRON-CANTON   MOSUNNY   20  12  71 CALM      30.32F
WOOSTER        SUNNY     17  12  80 CALM      30.35S HAZE
MANSFIELD      SUNNY     19  13  77 CALM      30.32F
YOUNGSTOWN     MOSUNNY   18  11  74 CALM      30.32F
$$

OHZ042-051>053-060>062-070>072-077>081-281800-
  SOUTHWEST OHIO

CITY           SKY/WX    TMP DP  RH WIND       PRES   REMARKS
CINC-COVINGTON MOSUNNY   29  15  56 S7        30.36F WCI  22
CINC-LUNKEN    SUNNY     27  17  66 VRB3      30.41F
HAMILTON       SUNNY     29  17  61 S6        30.39F WCI  23
DAYTON         MOSUNNY   24  16  71 S5        30.35F WCI  18
WRIGHT-PAT AFB NOT AVBL
DAYTON GENERAL SUNNY     24  15  68 S5        30.35F WCI  18
WILMINGTON     SUNNY     25  15  66 CALM      30.36S
$$

OHZ036-037-039>041-045>050-054>059-063>069-073>076-082>088-281800-
  CENTRAL AND SOUTHEAST OHIO

CITY           SKY/WX    TMP DP  RH WIND       PRES   REMARKS
COLUMBUS       MOSUNNY   23  14  68 CALM      30.38S
OSU AIRPORT    SUNNY     22  14  71 CALM      30.37S
BOLTON FIELD   SUNNY     19  14  79 CALM      30.38S
RICKENBACK AFB NOT AVBL
NEWARK         SUNNY     22  14  71 CALM      30.36F
MARION         SUNNY     15  11  83 SW3       30.37S FOG
LANCASTER      SUNNY     22  15  75 W6        30.38F WCI  14
ZANESVILLE     SUNNY     19  12  74 CALM      30.37F
NEW PHILLY     SUNNY     20  11  68 W3        30.37F
$$


USA.gov is the U.S. government's official web portal to all federal, state and local government web resources and services.